{"data":{"norad_id":62929,"intl_designator":"2025-028B","name":"KINEIS-2C","alt_names":[],"object_type":"PAYLOAD","status":"ACTIVE","operator":null,"country":"FR","launch_date":"2025-02-08","launch_site_code":"RLLB","launch_vehicle":null,"mission":null,"orbit_class":"UNKNOWN","rcs_meters":null,"size_class":null,"mass_kg":null,"dimensions":null,"purposes":[],"wikipedia_slug":null,"has_3d_model":false,"image_url":null,"decayed_at":null,"tle_current":{"epoch":"2026-05-25T03:52:58.166976Z","epoch_age_seconds":58307,"freshness":"FRESH","line1":"1 62929U 25028B   26145.16178434  .00000972  00000+0  15820-3 0  9993","line2":"2 62929  98.0954 199.5725 0001370  14.7496 345.3751 14.73298433 69226","mean_motion":14.73298433,"eccentricity":0.000137,"inclination_deg":98.0954,"raan_deg":199.5725,"arg_perigee_deg":14.7496,"mean_anomaly_deg":345.3751,"bstar":0.0001582,"rev_number":6922,"period_min":97.739871824054,"perigee_km":649.59493745834,"apogee_km":651.52079985235,"semimajor_km":7028.6948686553,"source":"CELESTRAK","updated_at":"2026-05-25T13:38:03.363009Z"}}}